Simultaneous Nadir Overpasses (SNOs) Predictions

Prediction of SNOs between GOES-18 and NOAA-21 Satellite Orbit:

Table of predicted SNOs for the next 14.0 days since TLE Epoch: 10/27/2023
Index Date Time (GOES-18) GOES-18 Lat,Lon NOAA-21 Lat,Lon Distance(km) Time Diff (sec)
1 10/27/2023 22:22:29 0.00,-137.04 0.59,-134.55 284.11 80
2 10/29/2023 10:44:18 -0.00,-137.03 0.64,-139.82 317.92 80
3 10/30/2023 10:22:56 -0.00,-137.03 -0.40,-135.30 197.20 80
4 10/31/2023 22:44:54 0.00,-137.02 -0.83,-140.61 409.60 80
5 11/01/2023 22:28:52 -0.00,-137.01 0.22,-136.09 105.28 80
6 11/03/2023 10:50:41 0.00,-137.00 1.00,-141.36 497.72 80
7 11/04/2023 10:29:18 0.01,-136.99 -0.05,-136.84 17.00 80
8 11/06/2023 22:32:34 0.02,-136.96 -0.11,-137.64 77.01 80
9 11/07/2023 22:16:31 0.02,-136.94 0.89,-133.11 437.40 80
10 11/09/2023 10:38:20 -0.02,-136.92 0.33,-138.38 166.27 80
11 11/10/2023 10:16:57 0.02,-136.91 -0.67,-133.85 348.71 80
